Погода в Ефремкасах

Россия / Чувашская Республика     55°42′57″N   46°49′36″E
темп.,
°C
ветер,
м/с
пор.,
м/с
влажн.,
%
обл.,
%
осадки,
мм/ч
давл.,
гПа
погр.,
м
10 мая, пн
пн1000:00+11з2294100 0.0 101323
03:00+12ссв1191100 0.4 101416
06:00+13всв2285100 0.3 101650
09:00+17в3475100 0.3 1017472
12:00+18с4470100 0.2 1019735
15:00+19с6667100 0.2 1021993
18:00+16с51084100 0.7 1021367
21:00+12с51095100 1.3 1023310
11 мая, вт
вт1100:00+11ссв71195100 0.3 1023196
03:00+10ссв51096100 0.3 1024271
06:00+10св5109495 0.0 1025250
09:00+16св678180 0.0 1026445
12:00+20всв456592 0.0 1026729
15:00+22всв4559100 0.0 10261095
18:00+20св3573100 0.0 102685
21:00+16всв3486100 0.6 102765
12 мая, ср
ср1200:00+14всв238671 0.0 102825
03:00+13всв349253 0.0 102760
06:00+15всв498622 0.0 1027230
09:00+20в586260 0.0 1027614
12:00+22вюв57525 0.0 10271574
15:00+22ю675496 0.0 1026685
18:00+19юв237075 0.0 102696
21:00+15в22755 0.0 102618
13 мая, чт
чт1300:00+14вюв227627 0.0 102615
03:00+13вюв2274100 0.0 102613
06:00+15вюв388165 0.0 1026210
09:00+20юв6105781 0.0 1025836
12:00+22юв71049100 0.0 10251401
15:00+18вюв3771100 0.1 1024251
18:00+16юв61378100 0.1 1023378
21:00+16вюв51575100 0.2 1022358
14 мая, пт
пт1400:00+15юв5148099 0.1 1022316
03:00+13юв4118611 0.4 1022202
06:00+15юв3107958 0.0 1022302
09:00+20ююв4658100 0.1 1021577
12:00+23ю4654100 0.0 1020981
15:00+22ююз576482 0.0 10201084
18:00+21юз3575100 0.0 1020190
21:00+18ююв1284100 0.0 102011